THOR ABLESTAR DEB, 130

Orbit data source: Space-Track

THOR ABLESTAR DEB, 130 is space debris in LEO originally from a launch on Thu, 29 Jun 1961 UTC launched from the Air Force Eastern Test Range (AFETR). Debris objects in space refer to the collection of defunct objects orbiting the Earth. Examples of debris include non-operational satellites, rocket bodies, and fragments generated from explosions, collisions, or faulty payload assembly.

Loading next visibility...
Identifier
130, 1961-015Q
Orbit
LEO
Country
Flag of USUS
Related business
Manufacturer
Unknown
Mission
Spacecraft
Bus & Motor
Unknown
Mass
Unknown
Launch date (UTC)
1961-06-29 (65 years ago)
Launch vehicle
Unknown
Launch site
Air Force Eastern Test Range (AFETR)
Object type
Payload
Rocket body
Debris
Shape & HBR
Unknown shape, 0.5 m
Radar Cross Section
Medium (>0.1 m² and <1 m²)

Expand to show TLE details & history
Last TLE update: 14 hours ago

TLE from 14 hours ago
0 THOR ABLESTAR DEB
1 00130U 61015Q   26126.00854141  .00000040  00000-0  79058-4 0  9994
2 00130  66.7724 356.3604 0090367 316.0977  43.2949 13.99419335305559
Epoch: 2026-05-06T00:12Z
TLE epoch observation values (Epoch: 2026-05-06T00:12:17.977Z)
Latitude
-0.00002°
Longitude
129.41029°
Altitude
850.324 km
Speed
7.452 km/s
True Right ascension
23h 45m 26s
True Declination
0° 00' 00"
Sunlit
Object was in daylight at epoch
Visualization orbit readout
Latitude
Unknown
Longitude
Unknown
Altitude
Unknown
Speed
Unknown
Apparent Right ascension
Unknown
Apparent Declination
Unknown
Sunlit
N/A
Visualization observer readout
Local Sidereal Time
22:08:30
Azimuth
Unknown
Elevation
Unknown
Doppler factor
Unknown
Orbital elements
Apogee altitude
959.914 km
Perigee altitude
828.478 km
Semi-major axis
7,272.333 km
Eccentricity
0.00904
Inclination
66.7724°
RAAN
356.3604°
Arg. of periapsis
316.0977°
True anomaly
44.01088°
Mean anomaly
43.2949°
Eccentric anomaly
43.6523°
Mean motion
3.49971 °/min
Orbital period
102.87 mins
BSTAR
0.000079058
Loading maneuver chart data...
Computing Atmospheric mass density...

Documentation

Showing up to 5 results
|